TimeEST,TemperatureF,Dew PointF,Humidity,Sea Level PressureIn,VisibilityMPH,Wind Direction,Wind SpeedMPH,Gust SpeedMPH,PrecipitationIn,Events,Conditions,WindDirDegrees,DateUTC
12:54 AM,41.0,30.0,65,30.54,10.0,North,9.2,-,N/A,,Overcast,10,2012-11-18 05:54:00
1:54 AM,42.1,30.9,65,30.53,10.0,North,9.2,-,N/A,,Overcast,10,2012-11-18 06:54:00
2:54 AM,42.1,30.9,65,30.53,10.0,North,6.9,-,N/A,,Overcast,10,2012-11-18 07:54:00
3:54 AM,43.0,32.0,65,30.53,10.0,NNE,12.7,17.3,N/A,,Overcast,20,2012-11-18 08:54:00
4:33 AM,42.8,30.2,61,30.52,10.0,NNE,10.4,-,N/A,,Overcast,20,2012-11-18 09:33:00
4:54 AM,43.0,30.9,62,30.53,10.0,NNE,8.1,-,N/A,,Overcast,20,2012-11-18 09:54:00
5:44 AM,44.6,30.2,57,30.54,10.0,NNE,10.4,-,N/A,,Overcast,20,2012-11-18 10:44:00
5:54 AM,44.1,30.9,60,30.55,10.0,NNE,10.4,-,N/A,,Overcast,20,2012-11-18 10:54:00
6:54 AM,45.0,30.9,58,30.55,10.0,NNE,11.5,-,N/A,,Overcast,20,2012-11-18 11:54:00
7:04 AM,44.6,30.2,57,30.53,10.0,NNE,13.8,-,N/A,,Overcast,20,2012-11-18 12:04:00
7:54 AM,45.0,30.9,58,30.55,10.0,NNE,11.5,-,N/A,,Overcast,20,2012-11-18 12:54:00
8:45 AM,46.4,32.0,57,30.55,10.0,NNE,11.5,-,N/A,,Overcast,30,2012-11-18 13:45:00
8:54 AM,46.0,32.0,58,30.56,10.0,NNE,13.8,-,N/A,,Overcast,20,2012-11-18 13:54:00
9:13 AM,46.4,32.0,57,30.54,10.0,NNE,13.8,-,N/A,,Overcast,30,2012-11-18 14:13:00
9:54 AM,46.9,33.1,59,30.57,10.0,NNE,10.4,-,N/A,,Overcast,20,2012-11-18 14:54:00
10:15 AM,48.2,33.8,58,30.56,10.0,NNE,11.5,-,N/A,,Overcast,30,2012-11-18 15:15:00
10:54 AM,50.0,35.1,57,30.55,10.0,NNE,12.7,-,N/A,,Partly Cloudy,20,2012-11-18 15:54:00
11:54 AM,53.1,37.0,55,30.51,10.0,NNE,13.8,-,N/A,,Scattered Clouds,20,2012-11-18 16:54:00
12:54 PM,54.0,37.9,55,30.49,10.0,NNE,13.8,21.9,N/A,,Mostly Cloudy,30,2012-11-18 17:54:00
1:54 PM,53.1,37.0,55,30.47,10.0,NNE,11.5,-,N/A,,Partly Cloudy,20,2012-11-18 18:54:00
2:54 PM,53.1,37.0,55,30.46,10.0,NE,13.8,20.7,N/A,,Clear,40,2012-11-18 19:54:00
3:54 PM,52.0,37.0,57,30.47,10.0,NE,13.8,-,N/A,,Clear,40,2012-11-18 20:54:00
4:54 PM,50.0,37.0,61,30.47,10.0,NE,10.4,-,N/A,,Partly Cloudy,40,2012-11-18 21:54:00
5:54 PM,48.0,37.0,66,30.47,10.0,NE,9.2,-,N/A,,Clear,40,2012-11-18 22:54:00
6:40 PM,48.2,37.4,66,30.47,10.0,NNE,12.7,-,N/A,,Overcast,30,2012-11-18 23:40:00
6:54 PM,48.9,37.0,64,30.48,10.0,NNE,11.5,-,N/A,,Overcast,20,2012-11-18 23:54:00
7:11 PM,48.2,37.4,66,30.47,10.0,NNE,12.7,-,N/A,,Overcast,30,2012-11-19 00:11:00
7:54 PM,48.0,37.0,66,30.48,10.0,NNE,12.7,19.6,N/A,,Overcast,20,2012-11-19 00:54:00
8:54 PM,48.0,37.0,66,30.48,10.0,NNE,16.1,-,N/A,,Overcast,30,2012-11-19 01:54:00
9:54 PM,48.0,37.9,68,30.48,10.0,NNE,16.1,-,N/A,,Overcast,30,2012-11-19 02:54:00
10:33 PM,46.4,37.4,71,30.46,10.0,NNE,9.2,-,N/A,,Overcast,30,2012-11-19 03:33:00
10:54 PM,46.9,37.0,68,30.47,10.0,NNE,15.0,19.6,N/A,,Overcast,30,2012-11-19 03:54:00
11:06 PM,46.4,37.4,71,30.46,10.0,NNE,8.1,17.3,N/A,,Overcast,20,2012-11-19 04:06:00
11:54 PM,46.4,37.4,71,30.45,10.0,NNE,12.7,-,N/A,,Overcast,30,2012-11-19 04:54:00